Regional Weather Roundup
Issued by NWS

Home | Current Version | Previous Version | Graphics & Text | Print | Product List | Glossary On
Versions: 1 2 3 4 5 6 7 8 9 10 11 12 13 14 15 16 17 18 19 20 21 22 23 24 25 26 27 28 29 30 31 32 33 34 35 36 37 38 39 40 41 42 43 44 45 46 47 48 49 50
000
ASUS45 KBOI 211610
RWRID
WEATHER ROUNDUP FOR IDAHO
NATIONAL WEATHER SERVICE BOISE ID
1000 AM MDT THU AUG 21 2014

NOTE: "FAIR" INDICATES FEW OR NO CLOUDS BELOW 12000 FEET
WITH NO SIGNIFICANT WEATHER AND/OR OBSTRUCTIONS TO VISIBILITY

IDZ012-014-211700-
SOUTHWEST IDAHO


CITY           SKY/WX    TMP DP  RH WIND       PRES   REMARKS
BOISE          PTSUNNY   69  42  37 CALM      30.00S
CALDWELL       SUNNY     70  36  28 NW9       30.01S
MOUNTAIN HOME  SUNNY     68  55  62 S10       30.01R
$$

IDZ016-017-211700-
SOUTHCENTRAL IDAHO


CITY           SKY/WX    TMP DP  RH WIND       PRES   REMARKS
BURLEY         PTSUNNY   63  56  78 CALM      30.06R
JEROME         PTSUNNY   65  58  78 NE9       30.05R
TWIN FALLS     PTSUNNY   67  56  67 S3        30.05R
$$

IDZ019>023-211700-
SOUTHEAST IDAHO


CITY           SKY/WX    TMP DP  RH WIND       PRES   REMARKS
IDAHO FALLS    CLOUDY    59  54  83 SW7       30.12R
POCATELLO      MOSUNNY   63  56  78 NE3       30.09F
REXBURG        CLOUDY    56  53  90 S6        30.11S
$$

IDZ006-010-011-018-031-032-211700-
CENTRAL IDAHO MOUNTAINS


CITY           SKY/WX    TMP DP  RH WIND       PRES   REMARKS
MCCALL         MOSUNNY   56  48  74 CALM      30.06R
HAILEY         MOSUNNY   61  52  72 CALM      30.12S
STANLEY          N/A     54  46  74 N5        30.14S
SALMON         SUNNY     57  52  82 CALM      30.06F
CHALLIS        MOSUNNY   59  50  72 N3        30.10S
$$

IDZ002-004-006-007-026-211700-
NORTHERN IDAHO


CITY           SKY/WX    TMP DP  RH WIND       PRES   REMARKS
LEWISTON       SUNNY     68  44  42 CALM      29.98S
LOWELL           N/A     64  55  72 CALM      29.98F
COEUR D`ALENE  PTSUNNY   61  54  77 E3        30.00S
MULLAN PASS    PTSUNNY   54  49  83 CALM      30.10S
$$


USA.gov is the U.S. government's official web portal to all federal, state and local government web resources and services.